[[[{"header":{"parameterUnit":"kt","parameterCategory":2,"dx":1,"dy":1,"la1":30.253999710083008,"la2":30.299108505249023,"lo1":-89.0895004272461,"lo2":-89.04439544677734,"nx":28,"ny":28,"refTime":"2022-10-01T21:00:00:Z","depth":0,"parameterNumber":1,"parameterNumberName":"U-component_of_WINDS"},"data":[-1.888,-1.9064,-1.9078,-1.9295,-1.9343,-1.9495,-1.9554,-1.9631,-1.9696,-1.9878,-1.9986,-2.0019,-2.009,-2.0223,-2.0341,-2.0353,-2.0405,-2.0459,-2.0466,-2.0205,-2.017,-2.0137,-2.0095,-2.0469,-2.0469,-2.0736,-2.0738,-2.074,-1.8687,-1.8737,-1.8855,-1.898,-1.9081,-1.9036,-1.9131,-1.922,-1.9357,-1.9438,-1.9545,-1.9707,-1.9837,-1.9891,-2.0019,-2.0107,-2.0095,-2.0141,-2.0138,-2.0151,-1.9871,-1.9827,-2.0149,-2.0149,-2.0149,-2.0149,-2.0149,-2.0149,-1.8341,-1.8451,-1.8534,-1.8662,-1.8728,-1.8811,-1.8919,-1.8956,-1.9073,-1.9208,-1.9201,-1.9357,-1.9441,-1.9603,-1.9661,-1.9783,-1.9735,-1.9791,-1.9807,-1.9822,-1.9838,-1.9458,-1.9805,-1.9804,-1.9803,-1.9803,-1.9802,0,-1.8093,-1.8097,-1.8211,-1.833,-1.8424,-1.8518,-1.8606,-1.8673,-1.8687,-1.8783,-1.8923,-1.9007,-1.9171,-1.9307,-1.9429,-1.9479,-1.9447,-1.9443,-1.9483,-1.9492,-1.9483,-1.9495,-1.9043,-1.9435,-1.9431,-1.9429,-1.9428,-1.9426,-1.775,-1.7875,-1.7968,-1.8046,-1.8097,-1.8224,-1.8303,-1.8305,-1.8389,-1.8498,-1.8596,-1.8729,-1.8838,-1.9061,-1.9106,-1.9231,-1.9217,-1.9366,-1.9236,-1.9238,-1.9226,-1.9221,-1.9235,-1.9393,-1.9398,-1.9401,-1.9404,0,-1.7556,-1.7577,-1.7775,-1.7855,-1.7879,-1.8011,-1.808,-1.819,-1.8214,-1.8369,-1.8406,-1.8447,-1.8585,-1.8606,-1.8769,-1.8776,-1.8997,-1.8978,-1.8968,-1.8968,-1.9106,-1.9095,-1.9545,-1.9605,-1.9212,-1.9216,-1.9219,0,-1.7274,-1.7438,-1.7461,-1.7575,-1.7757,-1.7755,-1.7937,-1.7976,-1.8049,-1.8171,-1.8134,-1.825,-1.8258,-1.8377,-1.8389,-1.8572,-1.8601,-1.862,-1.8622,-1.8627,-1.8625,-1.8677,-1.8661,-1.8615,-1.8613,-1.8611,-1.8609,0,-1.6972,-1.7175,-1.7359,-1.7409,-1.7512,-1.7599,-1.7646,-1.7727,-1.7805,-1.7908,-1.7959,-1.8079,-1.8147,-1.8241,-1.8255,-1.8167,-1.8478,-1.836,-1.8498,-1.8499,-1.8571,-1.8568,-1.8955,-1.8606,-1.8606,-1.8605,-1.8604,0,-1.675,-1.6852,-1.7115,-1.72,-1.7254,-1.7375,-1.7494,-1.7602,-1.769,-1.7705,-1.7786,-1.7766,-1.7925,-1.7807,-1.8027,-1.7909,-1.7978,-1.8009,-1.8019,-1.804,-1.7909,-1.8131,-1.8492,-1.8534,-1.8052,-1.8047,-1.8043,0,-1.6401,-1.6671,-1.6672,-1.6922,-1.705,-1.7001,-1.7136,-1.7215,-1.7245,-1.7359,-1.7392,-1.7524,-1.7439,-1.7484,-1.7589,-1.7631,-1.7784,-1.761,-1.7781,-1.7788,-1.7764,-1.8096,-1.8147,-1.8409,-1.7984,-1.7991,-1.7995,0,-1.6134,-1.6256,-1.6301,-1.6359,-1.6462,-1.6569,-1.6723,-1.6851,-1.6928,-1.7019,-1.7151,-1.7333,-1.7278,-1.7352,-1.7349,-1.7458,-1.768,-1.7385,-1.7388,-1.7442,-1.7955,-1.8003,-1.8047,-1.7655,-1.7662,-1.7667,-1.7948,0,-1.5802,-1.5938,-1.6058,-1.6186,-1.6271,-1.6427,-1.6449,-1.6536,-1.6524,-1.6553,-1.6745,-1.6816,-1.695,-1.7003,-1.6993,-1.7234,-1.7199,-1.7139,-1.7031,-1.7246,-1.7339,-1.7377,-1.6889,-1.6886,-1.6883,-1.6881,0,0,-1.5466,-1.5662,-1.5659,-1.5808,-1.588,-1.5828,-1.5994,-1.6059,-1.6191,-1.6243,-1.6181,-1.645,-1.6512,-1.6744,-1.6812,-1.6864,-1.6912,-1.6836,-1.7142,-1.7171,-1.7198,-1.7297,-1.7336,-1.6876,-1.6875,-1.6874,-1.6874,0,-1.535,-1.5409,-1.5571,-1.5637,-1.5735,-1.5757,-1.5796,-1.5885,-1.5911,-1.6098,-1.6056,-1.6174,-1.6388,-1.6461,-1.6526,-1.6806,-1.6771,-1.6844,-1.6989,-1.7114,-1.7147,-1.7176,-1.728,-1.7317,-1.6867,-1.6868,-1.6868,0,-1.5095,-1.5159,-1.5239,-1.5398,-1.5462,-1.5595,-1.5484,-1.5628,-1.5727,-1.5667,-1.5854,-1.5898,-1.5996,-1.621,-1.6307,-1.6254,-1.6642,-1.6522,-1.6539,-1.6553,-1.6675,-1.6714,-1.6749,-1.6294,-1.6292,-1.629,0,0,-1.4992,-1.5119,-1.5189,-1.5375,-1.5418,-1.5453,-1.5526,-1.5522,-1.5609,-1.5645,-1.5701,-1.5789,-1.5913,-1.5996,-1.6115,-1.6346,-1.6369,-1.6451,-1.6478,-1.65,-1.6525,-1.6653,-1.6692,-1.6282,-1.6282,-1.6281,0,0,-1.4945,-1.5033,-1.5005,-1.5222,-1.5306,-1.539,-1.5503,-1.5472,-1.558,-1.5566,-1.5568,-1.5592,-1.5792,-1.5837,-1.5728,-1.6077,-1.5968,-1.5995,-1.6042,-1.6076,-1.6103,-1.609,-1.5629,0,0,0,0,0,-1.4838,-1.5021,-1.4995,-1.5035,-1.5237,-1.5403,-1.543,-1.5435,-1.5357,-1.5447,-1.5489,-1.5444,-1.5779,-1.5683,-1.5723,-1.5847,-1.618,-1.6198,-1.6215,-1.633,-1.6366,-1.6396,0,0,0,0,0,0,-1.4854,-1.4902,-1.499,-1.5081,-1.5127,-1.5397,-1.5267,-1.5274,-1.5348,-1.5336,-1.5438,-1.5448,-1.5456,-1.5662,-1.5699,-1.5816,-1.5617,-1.6187,-1.6202,-1.6216,-1.6342,-1.6371,-1.6396,0,0,0,0,0,-1.4866,-1.4905,-1.5228,-1.5079,-1.5118,-1.5169,-1.526,-1.5265,-1.5322,-1.5388,-1.5396,-1.532,-1.546,-1.5491,-1.5684,-1.5799,-1.5591,-1.5605,-1.6197,-1.6209,-1.622,-1.6356,0,0,0,0,0,0,-1.4876,-1.4911,-1.5236,-1.5249,-1.501,-1.5154,-1.5176,-1.5257,-1.5369,-1.5379,-1.5269,-1.5259,-1.5464,-1.5487,-1.5512,-1.5793,-1.5571,-1.5585,-1.5593,-1.6206,-1.6216,-1.6224,0,0,0,0,0,0,-1.489,-1.4922,-1.5243,-1.5155,-1.5158,-1.514,-1.516,-1.5325,-1.5371,-1.5244,-1.5239,-1.5263,-1.5428,-1.5486,-1.5505,-1.5762,-1.5555,-1.5568,-1.5577,-1.5583,-1.6214,-1.6221,0,0,0,0,0,0,-1.4904,-1.4931,-1.5152,-1.5154,-1.5156,-1.5295,-1.5286,-1.5494,-1.5294,-1.524,-1.5276,-1.5268,-1.5429,-1.5447,-1.55,-1.575,-1.5759,-1.5555,-1.5564,-1.5571,-1.5575,0,0,0,0,0,0,0,-1.4915,-1.473,-1.5163,-1.5153,-1.5154,-1.5362,-1.5366,-1.5369,-1.5292,-1.5285,-1.5278,-1.5272,-1.5479,-1.5494,-1.5509,-1.574,0,0,-1.5554,-1.556,0,0,0,0,0,0,0,0,-1.4719,-1.4727,-1.5163,-1.5166,-1.5168,-1.5363,-1.5366,-1.5369,-1.5291,-1.5285,-1.528,-1.5274,-1.5483,-1.5495,-1.5507,0,0,0,0,0,0,0,0,0,0,0,0,0,0,0,-1.5164,-1.5166,0,-1.5363,-1.5366,-1.5368,-1.529,-1.5286,-1.5281,-1.5277,-1.5487,-1.5496,-1.5506,0,0,0,0,0,0,0,0,0,0,0,0,0,0,0,0,0,0,0,0,0,0,0,0,0,0,0,0,0,0,0,0,0,0,0,0,0,0,0,0,0,0,0,0,0,0,0,0,0,0,0,0,0,0,0,0,0,0,0,0,0,0,0,0,0,0,0,0,0]}],[{"header":{"parameterUnit":"kt","parameterCategory":2,"dx":1,"dy":1,"la1":30.253999710083008,"la2":30.299108505249023,"lo1":-89.0895004272461,"lo2":-89.04439544677734,"nx":28,"ny":28,"refTime":"2022-10-01T21:00:00:Z","depth":0,"parameterNumber":2,"parameterNumberName":"V-component_of_WINDS"},"data":[-9.1064,-9.1267,-9.1291,-9.1531,-9.1592,-9.1758,-9.1824,-9.1911,-9.1985,-9.2182,-9.2299,-9.2338,-9.2417,-9.2557,-9.2681,-9.2695,-9.2745,-9.28,-9.2806,-9.2543,-9.2508,-9.2474,-9.2429,-9.2812,-9.2812,-9.3075,-9.3078,-9.308,-9.0866,-9.093,-9.1065,-9.1211,-9.1326,-9.1286,-9.1397,-9.1494,-9.1642,-9.1735,-9.1851,-9.2025,-9.2163,-9.2224,-9.2358,-9.2448,-9.2435,-9.2483,-9.2476,-9.2488,-9.2208,-9.216,-9.2492,-9.2491,-9.2491,-9.2491,-9.2491,-9.2491,-9.0513,-9.0634,-9.0737,-9.0883,-9.0962,-9.1058,-9.1176,-9.1225,-9.1353,-9.1502,-9.1501,-9.1667,-9.1761,-9.1933,-9.1995,-9.2122,-9.2071,-9.2129,-9.2143,-9.2157,-9.217,-9.1784,-9.2145,-9.2144,-9.2144,-9.2143,-9.2142,0,-9.0261,-9.0273,-9.0404,-9.0542,-9.065,-9.0758,-9.086,-9.0933,-9.0959,-9.1065,-9.1217,-9.1308,-9.1486,-9.1628,-9.1759,-9.1811,-9.1776,-9.1775,-9.1814,-9.1817,-9.1802,-9.1811,-9.1351,-9.1764,-9.176,-9.1758,-9.1756,-9.1755,-8.9904,-9.0044,-9.0162,-9.025,-9.0313,-9.0455,-9.0544,-9.0558,-9.065,-9.0775,-9.0879,-9.1024,-9.114,-9.1377,-9.1426,-9.1557,-9.1541,-9.1696,-9.156,-9.1557,-9.1541,-9.1532,-9.1545,-9.1721,-9.1726,-9.1729,-9.1732,0,-8.9701,-8.9739,-8.9961,-9.0063,-9.0093,-9.0237,-9.0322,-9.0441,-9.0474,-9.0642,-9.0682,-9.0732,-9.088,-9.0905,-9.1077,-9.1085,-9.1314,-9.1296,-9.1282,-9.1279,-9.1419,-9.1405,-9.1873,-9.1934,-9.1539,-9.1543,-9.1546,0,-8.941,-8.9592,-8.9637,-8.9764,-8.9965,-8.9976,-9.0173,-9.0221,-9.0304,-9.0437,-9.0404,-9.0528,-9.0541,-9.0667,-9.0679,-9.0871,-9.0904,-9.092,-9.0921,-9.0923,-9.0921,-9.0969,-9.0949,-9.0919,-9.0917,-9.0915,-9.0913,0,-8.9087,-8.9324,-8.9532,-8.9591,-8.9718,-8.9814,-8.987,-8.9963,-9.0049,-9.0164,-9.0219,-9.0351,-9.0423,-9.0524,-9.0538,-9.0445,-9.0774,-9.0649,-9.079,-9.079,-9.0861,-9.0856,-9.1266,-9.091,-9.0909,-9.0908,-9.0907,0,-8.8857,-8.8979,-8.9275,-8.9379,-8.944,-8.9576,-8.9709,-8.9831,-8.9931,-8.9949,-9.0039,-9.0019,-9.0191,-9.0064,-9.0299,-9.0173,-9.0245,-9.0277,-9.0287,-9.0303,-9.016,-9.0386,-9.0776,-9.0816,-9.0318,-9.0313,-9.0309,0,-8.8476,-8.8785,-8.8797,-8.9076,-8.9222,-8.9177,-8.9327,-8.9418,-8.9454,-8.9579,-8.9617,-8.976,-8.9671,-8.9719,-8.9832,-8.9876,-9.0039,-8.9855,-9.0029,-9.0035,-9.0003,-9.0363,-9.0414,-9.0688,-9.0246,-9.0253,-9.0258,0,-8.8185,-8.834,-8.839,-8.8458,-8.8583,-8.8705,-8.8877,-8.9023,-8.9106,-8.9212,-8.9355,-8.9556,-8.9496,-8.9576,-8.9573,-8.969,-8.9929,-8.961,-8.9612,-8.9665,-9.0218,-9.0265,-9.0311,-8.99,-8.9908,-8.9914,-9.0208,0,-8.7827,-8.7987,-8.8122,-8.8275,-8.8373,-8.8551,-8.8582,-8.868,-8.8669,-8.8703,-8.8914,-8.8994,-8.9139,-8.9198,-8.9188,-8.9448,-8.9408,-8.9343,-8.922,-8.9456,-8.9553,-8.9593,-8.9072,-8.9069,-8.9066,-8.9064,0,0,-8.7451,-8.7681,-8.769,-8.786,-8.7944,-8.7894,-8.808,-8.8154,-8.8307,-8.8364,-8.8296,-8.8592,-8.8659,-8.8911,-8.8987,-8.9046,-8.9094,-8.9011,-8.9344,-8.9375,-8.9404,-8.9508,-8.9549,-8.9059,-8.9057,-8.9056,-8.9055,0,-8.7327,-8.7405,-8.7591,-8.767,-8.7787,-8.7816,-8.786,-8.7966,-8.7997,-8.8205,-8.8158,-8.8287,-8.8524,-8.8601,-8.8671,-8.8982,-8.8937,-8.9024,-8.9181,-8.9314,-8.9349,-8.938,-8.9489,-8.9528,-8.9048,-8.9049,-8.9049,0,-8.7045,-8.7126,-8.722,-8.741,-8.7486,-8.7637,-8.7517,-8.7682,-8.7793,-8.7726,-8.7933,-8.7982,-8.8087,-8.8323,-8.8429,-8.837,-8.8792,-8.8664,-8.8683,-8.8695,-8.8825,-8.8867,-8.8904,-8.841,-8.8408,-8.8405,0,0,-8.6933,-8.7083,-8.7172,-8.7386,-8.7437,-8.7482,-8.7566,-8.7564,-8.7663,-8.7703,-8.7764,-8.7859,-8.7996,-8.8086,-8.8216,-8.8471,-8.8492,-8.8585,-8.8615,-8.8639,-8.8664,-8.88,-8.8842,-8.8397,-8.8397,-8.8396,0,0,-8.6878,-8.6992,-8.6965,-8.7218,-8.7316,-8.7416,-8.7543,-8.7511,-8.7632,-8.7615,-8.7615,-8.7641,-8.7861,-8.791,-8.7789,-8.8172,-8.805,-8.808,-8.8132,-8.8171,-8.8201,-8.8183,-8.7674,0,0,0,0,0,-8.6768,-8.6978,-8.6952,-8.7,-8.7239,-8.743,-8.7461,-8.7469,-8.7382,-8.7483,-8.7529,-8.7476,-8.7845,-8.7738,-8.7782,-8.7916,-8.8283,-8.8303,-8.8322,-8.8451,-8.849,-8.8524,0,0,0,0,0,0,-8.6787,-8.6845,-8.6947,-8.7056,-8.711,-8.7423,-8.7279,-8.7286,-8.7372,-8.7359,-8.7469,-8.748,-8.7487,-8.7715,-8.7755,-8.7883,-8.7661,-8.8291,-8.8308,-8.8324,-8.8464,-8.8497,-8.8525,0,0,0,0,0,-8.6802,-8.6848,-8.7231,-8.7053,-8.71,-8.7161,-8.7271,-8.7276,-8.7342,-8.7413,-8.7422,-8.7341,-8.7491,-8.7525,-8.7739,-8.7864,-8.7633,-8.7648,-8.8302,-8.8316,-8.8328,-8.848,0,0,0,0,0,0,-8.6813,-8.6853,-8.7241,-8.7255,-8.6975,-8.7143,-8.717,-8.7267,-8.739,-8.7402,-8.7283,-8.7272,-8.7496,-8.7521,-8.7548,-8.7858,-8.761,-8.7626,-8.7635,-8.8313,-8.8323,-8.8332,0,0,0,0,0,0,-8.6828,-8.6866,-8.7248,-8.7149,-8.7152,-8.7127,-8.7151,-8.7333,-8.7392,-8.7253,-8.7247,-8.7277,-8.7454,-8.752,-8.754,-8.7824,-8.7593,-8.7608,-8.7618,-8.7624,-8.8321,-8.8329,0,0,0,0,0,0,-8.6844,-8.6876,-8.7145,-8.7148,-8.715,-8.7312,-8.7287,-8.7531,-8.7312,-8.7248,-8.7292,-8.7283,-8.7455,-8.7475,-8.7536,-8.7812,-8.7821,-8.7594,-8.7604,-8.7611,-8.7615,0,0,0,0,0,0,0,-8.6857,-8.6639,-8.7156,-8.7147,-8.7148,-8.7388,-8.7392,-8.7396,-8.731,-8.7302,-8.7294,-8.7287,-8.751,-8.7526,-8.7542,-8.7801,0,0,-8.7592,-8.7599,0,0,0,0,0,0,0,0,-8.6626,-8.6636,-8.7157,-8.716,-8.7163,-8.7389,-8.7392,-8.7395,-8.7309,-8.7302,-8.7296,-8.729,-8.7514,-8.7527,-8.754,0,0,0,0,0,0,0,0,0,0,0,0,0,0,0,-8.7157,-8.7159,0,-8.7389,-8.7392,-8.7394,-8.7308,-8.7302,-8.7297,-8.7292,-8.7518,-8.7529,-8.7539,0,0,0,0,0,0,0,0,0,0,0,0,0,0,0,0,0,0,0,0,0,0,0,0,0,0,0,0,0,0,0,0,0,0,0,0,0,0,0,0,0,0,0,0,0,0,0,0,0,0,0,0,0,0,0,0,0,0,0,0,0,0,0,0,0,0,0,0,0]}]]]